TimeCDT,TemperatureF,Dew PointF,Humidity,Sea Level PressureIn,VisibilityMPH,Wind Direction,Wind SpeedMPH,Gust SpeedMPH,PrecipitationIn,Events,Conditions,WindDirDegrees,DateUTC
12:53 AM,70.0,66.9,90,30.05,10.0,NNE,8.1,-,N/A,,Clear,20,2013-08-18 05:53:00
1:53 AM,69.1,66.9,93,30.04,8.0,Calm,Calm,-,N/A,,Clear,0,2013-08-18 06:53:00
2:53 AM,68.0,66.0,93,30.04,9.0,Calm,Calm,-,N/A,,Clear,0,2013-08-18 07:53:00
3:53 AM,66.9,66.0,97,30.04,8.0,NNW,4.6,-,N/A,,Clear,340,2013-08-18 08:53:00
4:53 AM,66.0,64.9,96,30.05,7.0,NNW,4.6,-,N/A,,Clear,340,2013-08-18 09:53:00
5:53 AM,66.0,64.9,96,30.06,6.0,Calm,Calm,-,N/A,,Clear,0,2013-08-18 10:53:00
6:49 AM,66.2,64.4,94,30.08,4.0,Calm,Calm,-,N/A,,Partly Cloudy,0,2013-08-18 11:49:00
6:53 AM,66.0,64.9,96,30.08,4.0,Calm,Calm,-,N/A,,Partly Cloudy,0,2013-08-18 11:53:00
7:06 AM,66.2,64.4,94,30.09,4.0,Calm,Calm,-,N/A,,Mostly Cloudy,0,2013-08-18 12:06:00
7:53 AM,68.0,66.0,93,30.09,4.0,North,5.8,-,N/A,,Overcast,360,2013-08-18 12:53:00
8:21 AM,69.8,66.2,88,30.10,2.5,NNE,4.6,-,N/A,,Overcast,20,2013-08-18 13:21:00
8:45 AM,69.8,66.2,88,30.10,1.8,North,6.9,-,N/A,,Overcast,360,2013-08-18 13:45:00
8:53 AM,69.1,66.9,93,30.10,1.8,NNE,5.8,-,N/A,,Overcast,20,2013-08-18 13:53:00
9:14 AM,69.8,68.0,94,30.11,2.5,North,5.8,-,N/A,,Overcast,360,2013-08-18 14:14:00
9:26 AM,69.8,68.0,94,30.11,3.0,North,8.1,-,N/A,,Overcast,10,2013-08-18 14:26:00
9:53 AM,72.0,68.0,87,30.10,4.0,North,6.9,-,N/A,,Overcast,360,2013-08-18 14:53:00
10:34 AM,73.4,68.0,83,30.12,9.0,NE,6.9,-,N/A,,Overcast,40,2013-08-18 15:34:00
10:53 AM,73.0,68.0,84,30.12,10.0,ENE,9.2,-,N/A,,Overcast,60,2013-08-18 15:53:00
11:53 AM,78.1,68.0,71,30.12,10.0,ENE,10.4,-,N/A,,Mostly Cloudy,60,2013-08-18 16:53:00
12:12 PM,77.0,68.0,74,30.13,10.0,NE,9.2,-,N/A,,Mostly Cloudy,50,2013-08-18 17:12:00
12:53 PM,79.0,68.0,69,30.11,10.0,NE,5.8,-,N/A,,Mostly Cloudy,40,2013-08-18 17:53:00
1:08 PM,80.6,69.8,70,30.11,10.0,ENE,8.1,-,N/A,,Scattered Clouds,70,2013-08-18 18:08:00
1:53 PM,82.0,66.9,60,30.09,10.0,Variable,3.5,-,N/A,,Scattered Clouds,0,2013-08-18 18:53:00
2:53 PM,81.0,66.9,62,30.07,10.0,NNE,5.8,-,N/A,,Partly Cloudy,30,2013-08-18 19:53:00
3:53 PM,82.0,66.9,60,30.06,10.0,North,8.1,-,N/A,,Partly Cloudy,10,2013-08-18 20:53:00
4:53 PM,82.9,66.9,58,30.05,10.0,NNE,9.2,-,N/A,,Clear,20,2013-08-18 21:53:00
5:53 PM,82.0,66.9,60,30.05,10.0,NE,6.9,-,N/A,,Partly Cloudy,40,2013-08-18 22:53:00
6:53 PM,79.0,66.9,66,30.04,10.0,NNE,4.6,-,N/A,,Scattered Clouds,30,2013-08-18 23:53:00
7:53 PM,75.9,66.9,74,30.05,10.0,NNE,4.6,-,N/A,,Clear,20,2013-08-19 00:53:00
8:53 PM,73.0,66.9,81,30.06,10.0,North,4.6,-,N/A,,Clear,10,2013-08-19 01:53:00
9:53 PM,73.0,66.9,81,30.07,10.0,NNE,5.8,-,N/A,,Clear,20,2013-08-19 02:53:00
10:53 PM,72.0,66.9,84,30.07,10.0,NE,5.8,-,N/A,,Clear,40,2013-08-19 03:53:00
11:53 PM,70.0,66.0,87,30.07,10.0,Calm,Calm,-,N/A,,Clear,0,2013-08-19 04:53:00